FMMT Airport Information

Runway Information
Runway 01 Length 7218 ft width 131 ft
Elevation 19 ft Threshold 0 ft Heading 354
Runway 19 Length 7218 ft Width 131 ft
Elevation 22 ft Threshold 0 ft Heading 174
Airport Frequencies
Type A/G Name A/G VOICE Frequency 563.4 MHZ
Type TWR Name TWR Frequency 118.3 MHZ
Airport Navaids
Type VOR Name Toamasina Frequency 113100 KHZ
Type NDB Name Toamasina Frequency 358 KHZ
Airport Weather Information & NOTAM
ADDS - METARS form results

(2352 UTC 22 July 2018)
 
METAR text: FMMT 222300Z 24008KT 9999 VCSH SCT017 BKN033 18/17 Q1023
Conditions at: FMMT (TAMATAVE/TOAMASI, KM) observed 2300 UTC 22 July 2018
Temperature: 18.0°C (64°F)
Dewpoint: 17.0°C (63°F) [RH = 94%]
Pressure (altimeter): 30.21 inches Hg (1023.0 mb)
Winds: from the WSW (240 degrees) at 9 MPH (8 knots; 4.2 m/s)
Visibility: 6 or more miles (10+ km)
Ceiling: 3300 feet AGL
Clouds: scattered clouds at 1700 feet AGL
broken clouds at 3300 feet AGL
Weather: VCSH  (showers in vicinity)